Time,TemperatureF,DewpointF,PressureIn,WindDirection,WindDirectionDegrees,WindSpeedMPH,WindSpeedGustMPH,Humidity,HourlyPrecipIn,Conditions,Clouds,dailyrainin,SoftwareType,DateUTC
2013-08-28 11:14:00,72.0,53.0,30.40,East,80,1.0,5.0,51,0.00,,,0.26,,2013-08-28 17:14:00,
2013-08-28 11:24:00,73.0,54.0,30.40,East,101,0.0,5.0,51,0.00,,,0.26,,2013-08-28 17:24:00,
2013-08-28 11:52:00,75.0,52.0,30.40,North,5,0.0,5.0,45,0.00,,,0.26,,2013-08-28 17:52:00,
2013-08-28 12:12:00,75.0,55.0,30.40,North,11,4.0,7.0,50,0.00,,,0.26,,2013-08-28 18:12:00,
2013-08-28 12:21:00,75.0,45.0,30.40,NNE,14,0.0,4.0,35,0.00,,,0.26,,2013-08-28 18:21:00,
2013-08-28 12:42:00,76.0,49.0,30.39,WNW,296,0.0,5.0,39,0.00,,,0.26,,2013-08-28 18:42:00,
2013-08-28 12:52:00,77.0,46.0,30.39,North,355,2.0,8.0,34,0.00,,,0.26,,2013-08-28 18:52:00,
2013-08-28 13:12:00,77.0,50.0,30.38,East,83,3.0,10.0,39,0.00,,,0.26,,2013-08-28 19:12:00,
2013-08-28 13:21:00,77.0,49.0,30.38,East,91,0.0,10.0,38,0.00,,,0.26,,2013-08-28 19:21:00,
2013-08-28 13:42:00,78.0,48.0,30.37,NE,50,0.0,8.0,35,0.00,,,0.26,,2013-08-28 19:42:00,
2013-08-28 13:52:00,78.0,49.0,30.37,NNW,344,1.0,6.0,36,0.00,,,0.26,,2013-08-28 19:52:00,
2013-08-28 14:12:00,78.0,47.0,30.37,NNW,331,0.0,4.0,34,0.00,,,0.26,,2013-08-28 20:12:00,
2013-08-28 14:22:00,76.0,48.0,30.37,NW,320,2.0,5.0,37,0.00,,,0.26,,2013-08-28 20:22:00,
2013-08-28 14:32:00,76.0,48.0,30.37,NW,320,2.0,5.0,37,0.00,,,0.26,,2013-08-28 20:32:00,
2013-08-28 14:43:00,76.0,48.0,30.37,NW,320,2.0,5.0,37,0.00,,,0.26,,2013-08-28 20:43:00,
2013-08-28 14:52:00,75.0,49.0,30.36,NW,323,3.0,7.0,40,0.00,,,0.26,,2013-08-28 20:52:00,
2013-08-28 15:11:00,75.0,50.0,30.36,WNW,300,2.0,9.0,41,0.00,,,0.26,,2013-08-28 21:11:00,
2013-08-28 15:22:00,79.0,50.0,30.35,NNW,327,2.0,12.0,36,0.00,,,0.26,,2013-08-28 21:22:00,
2013-08-28 15:43:00,79.0,48.0,30.35,North,9,1.0,7.0,34,0.00,,,0.26,,2013-08-28 21:43:00,
2013-08-28 15:57:00,81.0,49.0,30.35,NW,304,1.0,6.0,33,0.00,,,0.26,,2013-08-28 21:57:00,
2013-08-28 16:15:00,80.0,48.0,30.35,WNW,283,2.0,7.0,33,0.00,,,0.26,,2013-08-28 22:15:00,
2013-08-28 16:25:00,80.0,48.0,30.34,North,5,0.0,5.0,33,0.00,,,0.26,,2013-08-28 22:25:00,
2013-08-28 16:43:00,82.0,50.0,30.34,WNW,294,1.0,4.0,33,0.00,,,0.26,,2013-08-28 22:43:00,
2013-08-28 16:54:00,81.0,48.0,30.34,NW,315,0.0,1.0,32,0.00,,,0.26,,2013-08-28 22:54:00,
2013-08-28 17:13:00,80.0,50.0,30.34,NNW,342,2.0,7.0,35,0.00,,,0.26,,2013-08-28 23:13:00,
2013-08-28 17:22:00,79.0,50.0,30.34,North,355,1.0,5.0,36,0.00,,,0.26,,2013-08-28 23:22:00,
2013-08-28 17:42:00,75.0,52.0,30.35,North,9,5.0,10.0,45,0.00,,,0.26,,2013-08-28 23:42:00,
2013-08-28 17:53:00,70.0,52.0,30.35,NNE,28,4.0,15.0,52,0.00,,,0.26,,2013-08-28 23:53:00,
2013-08-28 19:12:00,67.0,52.0,30.39,ESE,119,19.0,30.0,58,0.00,,,0.26,,2013-08-29 01:12:00,
2013-08-28 21:11:00,56.0,51.0,30.39,SSW,200,5.0,10.0,84,0.00,,,0.35,,2013-08-29 03:11:00,
2013-08-28 21:22:00,56.0,50.0,30.39,South,178,7.0,11.0,81,0.00,,,0.35,,2013-08-29 03:22:00,
2013-08-28 21:36:00,56.0,50.0,30.39,South,178,7.0,11.0,81,0.00,,,0.35,,2013-08-29 03:36:00,
2013-08-28 21:45:00,56.0,50.0,30.39,South,178,7.0,11.0,81,0.00,,,0.35,,2013-08-29 03:45:00,
2013-08-28 21:56:00,57.0,52.0,30.40,SE,134,3.0,6.0,84,0.00,,,0.09,,2013-08-29 03:56:00,
2013-08-28 22:18:00,57.0,52.0,30.40,SSE,152,3.0,6.0,84,0.00,,,0.09,,2013-08-29 04:18:00,
2013-08-28 22:28:00,56.0,52.0,30.40,SE,146,4.0,7.0,85,0.00,,,0.09,,2013-08-29 04:28:00,
2013-08-28 22:45:00,56.0,51.0,30.40,SSW,192,3.0,7.0,84,0.00,,,0.09,,2013-08-29 04:45:00,
2013-08-28 22:54:00,56.0,52.0,30.41,South,188,1.0,3.0,85,0.00,,,0.09,,2013-08-29 04:54:00,
2013-08-28 23:14:00,56.0,51.0,30.41,SSW,200,5.0,7.0,84,0.00,,,0.09,,2013-08-29 05:14:00,
2013-08-28 23:23:00,57.0,51.0,30.41,South,186,4.0,7.0,81,0.00,,,0.09,,2013-08-29 05:23:00,
2013-08-28 23:42:00,57.0,51.0,30.42,SSW,199,1.0,7.0,79,0.00,,,0.09,,2013-08-29 05:42:00,
2013-08-28 23:52:00,57.0,51.0,30.41,SSW,198,6.0,7.0,80,0.00,,,0.09,,2013-08-29 05:52:00,